Retour au catalogue

ALOS 2

ActifScienceSSO
NORAD 39766·PAYLOAD·🇯🇵 Japan

Lancé May 24, 2014 depuis Tanegashima Space Center

Loading…

Prochains Passages (prochaines 24 heures)

TLE

FraisSource: Space-Track

Époque: Sep 14, 2026, 14:49 UTC

1 39766U 14029A   26257.61743378  .00000931  00000-0  13151-3 0  9995
2 39766  97.9227 353.5004 0001479  99.0490 261.0889 14.79466881664803

Suivez ALOS 2 en temps réel avec AllMySat

Download on the App Store